Time,TemperatureF,DewpointF,PressureIn,WindDirection,WindDirectionDegrees,WindSpeedMPH,WindSpeedGustMPH,Humidity,HourlyPrecipIn,Conditions,Clouds,dailyrainin,SoftwareType,DateUTC
2013-08-15 00:00:00,52.6,50.6,30.19,WNW,303,1.0,3.0,93,0.00,,,0.00,Wunderground v.1.15,2013-08-15 04:00:00,
2013-08-15 00:01:00,52.5,50.5,30.19,WNW,303,2.0,3.0,93,0.00,,,0.00,Wunderground v.1.15,2013-08-15 04:01:00,
2013-08-15 00:06:00,52.4,50.4,30.18,WNW,303,2.0,3.0,93,0.00,,,0.00,Wunderground v.1.15,2013-08-15 04:06:00,
2013-08-15 00:11:00,52.2,50.5,30.19,WNW,303,2.0,3.0,94,0.00,,,0.00,Wunderground v.1.15,2013-08-15 04:11:00,
2013-08-15 00:17:00,52.1,50.4,30.19,WNW,303,2.0,3.0,94,0.00,,,0.00,Wunderground v.1.15,2013-08-15 04:17:00,
2013-08-15 00:22:00,52.1,50.4,30.19,WNW,303,3.0,3.0,94,0.00,,,0.00,Wunderground v.1.15,2013-08-15 04:22:00,
2013-08-15 00:27:00,52.0,50.3,30.18,WNW,303,2.0,3.0,94,0.00,,,0.00,Wunderground v.1.15,2013-08-15 04:27:00,
2013-08-15 00:32:00,51.8,50.1,30.18,WNW,303,2.0,3.0,94,0.00,,,0.00,Wunderground v.1.15,2013-08-15 04:32:00,
2013-08-15 00:37:00,51.8,50.1,30.18,WNW,303,2.0,3.0,94,0.00,,,0.00,Wunderground v.1.15,2013-08-15 04:37:00,
2013-08-15 00:42:00,51.7,50.0,30.18,WNW,303,3.0,3.0,94,0.00,,,0.00,Wunderground v.1.15,2013-08-15 04:42:00,
2013-08-15 00:47:00,51.6,49.9,30.18,WNW,303,2.0,3.0,94,0.00,,,0.00,Wunderground v.1.15,2013-08-15 04:47:00,
2013-08-15 00:52:00,51.5,49.8,30.18,WNW,303,2.0,3.0,94,0.00,,,0.00,Wunderground v.1.15,2013-08-15 04:52:00,
2013-08-15 00:57:00,51.4,49.7,30.18,WNW,303,3.0,3.0,94,0.00,,,0.00,Wunderground v.1.15,2013-08-15 04:57:00,
2013-08-15 01:02:00,51.3,49.9,30.18,WNW,303,3.0,3.0,95,0.00,,,0.00,Wunderground v.1.15,2013-08-15 05:02:00,
2013-08-15 01:07:00,51.2,49.8,30.18,WNW,303,2.0,3.0,95,0.00,,,0.00,Wunderground v.1.15,2013-08-15 05:07:00,
2013-08-15 01:12:00,51.2,49.8,30.18,WNW,303,2.0,3.0,95,0.00,,,0.00,Wunderground v.1.15,2013-08-15 05:12:00,
2013-08-15 01:17:00,51.2,49.8,30.18,WNW,303,3.0,3.0,95,0.00,,,0.00,Wunderground v.1.15,2013-08-15 05:17:00,
2013-08-15 01:22:00,51.2,49.8,30.18,WNW,303,3.0,3.0,95,0.00,,,0.00,Wunderground v.1.15,2013-08-15 05:22:00,
2013-08-15 01:27:00,51.1,49.4,30.19,WNW,303,3.0,3.0,94,0.00,,,0.00,Wunderground v.1.15,2013-08-15 05:27:00,
2013-08-15 01:32:00,51.0,49.6,30.18,WNW,303,3.0,4.0,95,0.00,,,0.00,Wunderground v.1.15,2013-08-15 05:32:00,
2013-08-15 01:37:00,51.0,49.6,30.18,WNW,303,3.0,4.0,95,0.00,,,0.00,Wunderground v.1.15,2013-08-15 05:37:00,
2013-08-15 01:42:00,51.0,49.6,30.18,WNW,303,3.0,3.0,95,0.00,,,0.00,Wunderground v.1.15,2013-08-15 05:42:00,
2013-08-15 01:47:00,50.9,49.5,30.18,WNW,303,3.0,3.0,95,0.00,,,0.00,Wunderground v.1.15,2013-08-15 05:47:00,
2013-08-15 01:52:00,50.8,49.4,30.18,WNW,303,3.0,4.0,95,0.00,,,0.00,Wunderground v.1.15,2013-08-15 05:52:00,
2013-08-15 01:57:00,50.9,49.5,30.18,WNW,303,3.0,4.0,95,0.00,,,0.00,Wunderground v.1.15,2013-08-15 05:57:00,
2013-08-15 02:02:00,50.9,49.5,30.18,WNW,303,3.0,3.0,95,0.00,,,0.00,Wunderground v.1.15,2013-08-15 06:02:00,
2013-08-15 02:07:00,50.9,49.5,30.18,WNW,303,3.0,4.0,95,0.00,,,0.00,Wunderground v.1.15,2013-08-15 06:07:00,
2013-08-15 02:12:00,50.9,49.5,30.18,WNW,303,3.0,3.0,95,0.00,,,0.00,Wunderground v.1.15,2013-08-15 06:12:00,
2013-08-15 02:17:00,50.7,49.3,30.18,WNW,303,3.0,3.0,95,0.00,,,0.00,Wunderground v.1.15,2013-08-15 06:17:00,
2013-08-15 02:22:00,50.6,49.2,30.17,WNW,303,4.0,4.0,95,0.00,,,0.00,Wunderground v.1.15,2013-08-15 06:22:00,
2013-08-15 02:27:00,50.6,49.2,30.17,WNW,303,3.0,4.0,95,0.00,,,0.00,Wunderground v.1.15,2013-08-15 06:27:00,
2013-08-15 02:32:00,50.5,49.1,30.17,WNW,303,3.0,4.0,95,0.00,,,0.00,Wunderground v.1.15,2013-08-15 06:32:00,
2013-08-15 02:37:00,50.4,49.0,30.17,WNW,303,3.0,4.0,95,0.00,,,0.00,Wunderground v.1.15,2013-08-15 06:37:00,
2013-08-15 02:42:00,50.3,48.9,30.17,WNW,303,3.0,4.0,95,0.00,,,0.00,Wunderground v.1.15,2013-08-15 06:42:00,
2013-08-15 02:47:00,50.4,49.0,30.17,WNW,303,4.0,4.0,95,0.00,,,0.00,Wunderground v.1.15,2013-08-15 06:47:00,
2013-08-15 02:52:00,50.3,48.9,30.17,WNW,303,3.0,4.0,95,0.00,,,0.00,Wunderground v.1.15,2013-08-15 06:52:00,
2013-08-15 02:57:00,50.3,48.9,30.17,WNW,303,4.0,4.0,95,0.00,,,0.00,Wunderground v.1.15,2013-08-15 06:57:00,
2013-08-15 03:02:00,50.2,48.8,30.17,WNW,303,3.0,4.0,95,0.00,,,0.00,Wunderground v.1.15,2013-08-15 07:02:00,
2013-08-15 03:07:00,50.1,48.7,30.17,WNW,303,3.0,4.0,95,0.00,,,0.00,Wunderground v.1.15,2013-08-15 07:07:00,
2013-08-15 03:12:00,50.0,48.6,30.17,WNW,303,4.0,4.0,95,0.00,,,0.00,Wunderground v.1.15,2013-08-15 07:12:00,
2013-08-15 03:17:00,49.9,48.5,30.17,WNW,303,3.0,4.0,95,0.00,,,0.00,Wunderground v.1.15,2013-08-15 07:17:00,
2013-08-15 03:22:00,49.8,48.7,30.17,NW,304,3.0,3.0,96,0.00,,,0.00,Wunderground v.1.15,2013-08-15 07:22:00,
2013-08-15 03:27:00,49.8,48.7,30.17,WNW,303,3.0,4.0,96,0.00,,,0.00,Wunderground v.1.15,2013-08-15 07:27:00,
2013-08-15 03:32:00,49.7,48.3,30.17,WNW,303,3.0,4.0,95,0.00,,,0.00,Wunderground v.1.15,2013-08-15 07:32:00,
2013-08-15 03:37:00,49.7,48.6,30.17,WNW,303,3.0,4.0,96,0.00,,,0.00,Wunderground v.1.15,2013-08-15 07:37:00,
2013-08-15 03:42:00,49.7,48.6,30.17,WNW,303,3.0,4.0,96,0.00,,,0.00,Wunderground v.1.15,2013-08-15 07:42:00,
2013-08-15 03:47:00,49.7,48.6,30.17,WNW,303,3.0,4.0,96,0.00,,,0.00,Wunderground v.1.15,2013-08-15 07:47:00,
2013-08-15 03:52:00,49.7,48.6,30.17,WNW,303,3.0,4.0,96,0.00,,,0.00,Wunderground v.1.15,2013-08-15 07:52:00,
2013-08-15 03:57:00,49.7,48.6,30.17,WNW,303,3.0,4.0,96,0.00,,,0.00,Wunderground v.1.15,2013-08-15 07:57:00,
2013-08-15 04:02:00,49.7,48.6,30.17,WNW,303,3.0,4.0,96,0.00,,,0.00,Wunderground v.1.15,2013-08-15 08:02:00,
2013-08-15 04:07:00,49.8,48.7,30.17,WNW,303,3.0,4.0,96,0.00,,,0.00,Wunderground v.1.15,2013-08-15 08:07:00,
2013-08-15 04:12:00,49.8,48.7,30.17,WNW,303,4.0,4.0,96,0.00,,,0.00,Wunderground v.1.15,2013-08-15 08:12:00,
2013-08-15 04:17:00,49.8,48.7,30.17,NW,304,2.0,4.0,96,0.00,,,0.00,Wunderground v.1.15,2013-08-15 08:17:00,
2013-08-15 04:22:00,49.9,48.5,30.17,WNW,303,3.0,4.0,95,0.00,,,0.00,Wunderground v.1.15,2013-08-15 08:22:00,
2013-08-15 04:27:00,49.8,48.4,30.17,WNW,303,3.0,4.0,95,0.00,,,0.00,Wunderground v.1.15,2013-08-15 08:27:00,
2013-08-15 04:32:00,49.9,48.5,30.17,WNW,303,3.0,4.0,95,0.00,,,0.00,Wunderground v.1.15,2013-08-15 08:32:00,
2013-08-15 04:38:00,49.9,48.5,30.17,WNW,303,3.0,4.0,95,0.00,,,0.00,Wunderground v.1.15,2013-08-15 08:38:00,
2013-08-15 04:43:00,50.0,48.6,30.17,WNW,303,3.0,4.0,95,0.00,,,0.00,Wunderground v.1.15,2013-08-15 08:43:00,
2013-08-15 04:48:00,50.0,48.6,30.17,WNW,303,3.0,5.0,95,0.00,,,0.00,Wunderground v.1.15,2013-08-15 08:48:00,
2013-08-15 04:53:00,49.9,48.5,30.17,WNW,303,3.0,4.0,95,0.00,,,0.00,Wunderground v.1.15,2013-08-15 08:53:00,
2013-08-15 04:58:00,49.8,48.4,30.17,WNW,303,3.0,4.0,95,0.00,,,0.00,Wunderground v.1.15,2013-08-15 08:58:00,
2013-08-15 05:03:00,49.8,48.4,30.17,WNW,303,4.0,4.0,95,0.00,,,0.00,Wunderground v.1.15,2013-08-15 09:03:00,
2013-08-15 05:08:00,49.6,48.2,30.17,WNW,303,4.0,4.0,95,0.00,,,0.00,Wunderground v.1.15,2013-08-15 09:08:00,
2013-08-15 05:13:00,49.6,48.2,30.17,WNW,303,3.0,4.0,95,0.00,,,0.00,Wunderground v.1.15,2013-08-15 09:13:00,
2013-08-15 05:18:00,49.6,48.2,30.17,WNW,303,4.0,4.0,95,0.00,,,0.00,Wunderground v.1.15,2013-08-15 09:18:00,
2013-08-15 05:23:00,49.6,48.2,30.17,WNW,303,4.0,4.0,95,0.00,,,0.00,Wunderground v.1.15,2013-08-15 09:23:00,
2013-08-15 05:28:00,49.6,48.5,30.17,WNW,303,4.0,4.0,96,0.00,,,0.00,Wunderground v.1.15,2013-08-15 09:28:00,
2013-08-15 05:33:00,49.7,48.6,30.17,ESE,114,5.0,5.0,96,0.00,,,0.00,Wunderground v.1.15,2013-08-15 09:33:00,
2013-08-15 05:38:00,49.7,48.3,30.17,ESE,117,3.0,5.0,95,0.00,,,0.00,Wunderground v.1.15,2013-08-15 09:38:00,
2013-08-15 05:43:00,49.7,48.3,30.17,ESE,117,4.0,5.0,95,0.00,,,0.00,Wunderground v.1.15,2013-08-15 09:43:00,
2013-08-15 05:48:00,49.8,48.4,30.17,ESE,117,4.0,5.0,95,0.00,,,0.00,Wunderground v.1.15,2013-08-15 09:48:00,
2013-08-15 05:53:00,49.8,48.4,30.17,ESE,113,3.0,6.0,95,0.00,,,0.00,Wunderground v.1.15,2013-08-15 09:53:00,
2013-08-15 05:58:00,49.8,48.4,30.17,ESE,111,4.0,6.0,95,0.00,,,0.00,Wunderground v.1.15,2013-08-15 09:58:00,
2013-08-15 06:03:00,49.8,48.4,30.17,ESE,117,3.0,5.0,95,0.00,,,0.00,Wunderground v.1.15,2013-08-15 10:03:00,
2013-08-15 06:08:00,49.7,48.3,30.17,ESE,117,4.0,5.0,95,0.00,,,0.00,Wunderground v.1.15,2013-08-15 10:08:00,
2013-08-15 06:13:00,49.7,48.3,30.18,ESE,117,3.0,5.0,95,0.00,,,0.00,Wunderground v.1.15,2013-08-15 10:13:00,
2013-08-15 06:18:00,49.7,48.3,30.18,ESE,121,4.0,5.0,95,0.00,,,0.00,Wunderground v.1.15,2013-08-15 10:18:00,
2013-08-15 06:23:00,49.7,48.3,30.18,ESE,120,4.0,5.0,95,0.00,,,0.00,Wunderground v.1.15,2013-08-15 10:23:00,
2013-08-15 06:28:00,49.6,47.9,30.18,ESE,120,3.0,5.0,94,0.00,,,0.00,Wunderground v.1.15,2013-08-15 10:28:00,
2013-08-15 06:33:00,49.6,47.9,30.18,ESE,120,3.0,5.0,94,0.00,,,0.00,Wunderground v.1.15,2013-08-15 10:33:00,
2013-08-15 06:38:00,49.5,48.1,30.18,ESE,120,4.0,5.0,95,0.00,,,0.00,Wunderground v.1.15,2013-08-15 10:38:00,
2013-08-15 06:43:00,49.5,48.1,30.17,ESE,120,4.0,4.0,95,0.00,,,0.00,Wunderground v.1.15,2013-08-15 10:43:00,
2013-08-15 06:48:00,49.5,48.1,30.18,ESE,112,3.0,6.0,95,0.00,,,0.00,Wunderground v.1.15,2013-08-15 10:48:00,
2013-08-15 06:53:00,49.6,48.2,30.18,ESE,112,3.0,5.0,95,0.00,,,0.00,Wunderground v.1.15,2013-08-15 10:53:00,
2013-08-15 06:58:00,49.6,48.2,30.18,ESE,115,1.0,5.0,95,0.00,,,0.00,Wunderground v.1.15,2013-08-15 10:58:00,
2013-08-15 07:03:00,49.5,48.1,30.18,ESE,116,4.0,6.0,95,0.00,,,0.00,Wunderground v.1.15,2013-08-15 11:03:00,
2013-08-15 07:08:00,49.5,48.1,30.18,ESE,117,4.0,6.0,95,0.00,,,0.00,Wunderground v.1.15,2013-08-15 11:08:00,
2013-08-15 07:13:00,49.4,48.0,30.18,ESE,118,4.0,5.0,95,0.00,,,0.00,Wunderground v.1.15,2013-08-15 11:13:00,
2013-08-15 07:18:00,49.5,48.1,30.18,ESE,118,3.0,5.0,95,0.00,,,0.00,Wunderground v.1.15,2013-08-15 11:18:00,
2013-08-15 07:23:00,49.6,48.2,30.18,ESE,117,3.0,5.0,95,0.00,,,0.00,Wunderground v.1.15,2013-08-15 11:23:00,
2013-08-15 07:28:00,49.8,48.4,30.18,ESE,116,3.0,6.0,95,0.00,,,0.00,Wunderground v.1.15,2013-08-15 11:28:00,
2013-08-15 07:33:00,50.1,48.4,30.18,ESE,116,3.0,5.0,94,0.00,,,0.00,Wunderground v.1.15,2013-08-15 11:33:00,
2013-08-15 07:38:00,50.5,48.8,30.18,ESE,116,3.0,5.0,94,0.00,,,0.00,Wunderground v.1.15,2013-08-15 11:38:00,
2013-08-15 07:43:00,50.8,48.8,30.18,ESE,107,4.0,5.0,93,0.00,,,0.00,Wunderground v.1.15,2013-08-15 11:43:00,
2013-08-15 07:48:00,51.2,49.2,30.18,ESE,110,3.0,5.0,93,0.00,,,0.00,Wunderground v.1.15,2013-08-15 11:48:00,
2013-08-15 07:53:00,51.5,49.3,30.18,ESE,112,3.0,6.0,92,0.00,,,0.00,Wunderground v.1.15,2013-08-15 11:53:00,
2013-08-15 07:58:00,51.8,49.5,30.18,ESE,112,5.0,6.0,92,0.00,,,0.00,Wunderground v.1.15,2013-08-15 11:58:00,
2013-08-15 08:03:00,52.1,49.8,30.18,ESE,112,3.0,5.0,92,0.00,,,0.00,Wunderground v.1.15,2013-08-15 12:03:00,
2013-08-15 08:08:00,52.4,49.8,30.18,ESE,112,2.0,5.0,91,0.00,,,0.00,Wunderground v.1.15,2013-08-15 12:08:00,
2013-08-15 08:13:00,52.8,50.5,30.18,North,360,3.0,5.0,92,0.00,,,0.00,Wunderground v.1.15,2013-08-15 12:13:00,
2013-08-15 08:18:00,53.3,50.7,30.18,ESE,112,3.0,5.0,91,0.00,,,0.00,Wunderground v.1.15,2013-08-15 12:18:00,
2013-08-15 08:23:00,54.0,51.1,30.18,ESE,112,4.0,4.0,90,0.00,,,0.00,Wunderground v.1.15,2013-08-15 12:23:00,
2013-08-15 08:28:00,54.6,51.4,30.18,ESE,112,3.0,4.0,89,0.00,,,0.00,Wunderground v.1.15,2013-08-15 12:28:00,
2013-08-15 08:33:00,55.4,51.9,30.18,ESE,112,2.0,3.0,88,0.00,,,0.00,Wunderground v.1.15,2013-08-15 12:33:00,
2013-08-15 08:38:00,56.4,52.6,30.18,ESE,112,2.0,3.0,87,0.00,,,0.00,Wunderground v.1.15,2013-08-15 12:38:00,
2013-08-15 08:43:00,57.3,53.1,30.19,ESE,112,2.0,3.0,86,0.00,,,0.00,Wunderground v.1.15,2013-08-15 12:43:00,
2013-08-15 08:48:00,57.7,53.2,30.19,ESE,112,2.0,2.0,85,0.00,,,0.00,Wunderground v.1.15,2013-08-15 12:48:00,
2013-08-15 08:53:00,57.8,53.3,30.19,ESE,112,3.0,3.0,85,0.00,,,0.00,Wunderground v.1.15,2013-08-15 12:53:00,
2013-08-15 08:58:00,58.3,53.5,30.19,ESE,112,2.0,2.0,84,0.00,,,0.00,Wunderground v.1.15,2013-08-15 12:58:00,
2013-08-15 09:03:00,58.7,53.9,30.19,ESE,112,2.0,3.0,84,0.00,,,0.00,Wunderground v.1.15,2013-08-15 13:03:00,
2013-08-15 09:08:00,59.0,54.2,30.19,ESE,112,1.0,2.0,84,0.00,,,0.00,Wunderground v.1.15,2013-08-15 13:08:00,
2013-08-15 09:13:00,59.7,54.9,30.19,ESE,112,2.0,3.0,84,0.00,,,0.00,Wunderground v.1.15,2013-08-15 13:13:00,
2013-08-15 09:18:00,60.8,55.9,30.19,ESE,112,0.0,1.0,84,0.00,,,0.00,Wunderground v.1.15,2013-08-15 13:18:00,
2013-08-15 09:23:00,61.7,56.1,30.19,ESE,112,0.0,1.0,82,0.00,,,0.00,Wunderground v.1.15,2013-08-15 13:23:00,
2013-08-15 09:28:00,61.8,55.6,30.19,ESE,112,0.0,0.0,80,0.00,,,0.00,Wunderground v.1.15,2013-08-15 13:28:00,
2013-08-15 09:33:00,62.7,55.7,30.19,ESE,112,0.0,1.0,78,0.00,,,0.00,Wunderground v.1.15,2013-08-15 13:33:00,
2013-08-15 09:38:00,62.9,55.6,30.19,ESE,112,0.0,0.0,77,0.00,,,0.00,Wunderground v.1.15,2013-08-15 13:38:00,
2013-08-15 09:44:00,62.7,54.7,30.19,ESE,112,0.0,1.0,75,0.00,,,0.00,Wunderground v.1.15,2013-08-15 13:44:00,
2013-08-15 09:49:00,62.7,54.3,30.19,ESE,112,0.0,1.0,74,0.00,,,0.00,Wunderground v.1.15,2013-08-15 13:49:00,
2013-08-15 09:54:00,62.7,52.8,30.19,West,272,0.0,3.0,70,0.00,,,0.00,Wunderground v.1.15,2013-08-15 13:54:00,
2013-08-15 09:59:00,63.5,52.7,30.19,WSW,246,0.0,1.0,68,0.00,,,0.00,Wunderground v.1.15,2013-08-15 13:59:00,
2013-08-15 10:04:00,63.4,53.4,30.19,WSW,242,0.0,3.0,70,0.00,,,0.00,Wunderground v.1.15,2013-08-15 14:04:00,
2013-08-15 10:09:00,64.0,54.0,30.19,WSW,237,0.0,0.0,70,0.00,,,0.00,Wunderground v.1.15,2013-08-15 14:09:00,
2013-08-15 10:14:00,63.8,51.8,30.19,WSW,239,0.0,3.0,65,0.00,,,0.00,Wunderground v.1.15,2013-08-15 14:14:00,
2013-08-15 10:19:00,64.1,51.2,30.19,WSW,239,0.0,1.0,63,0.00,,,0.00,Wunderground v.1.15,2013-08-15 14:19:00,
2013-08-15 10:24:00,64.4,50.7,30.19,WSW,244,0.0,5.0,61,0.00,,,0.00,Wunderground v.1.15,2013-08-15 14:24:00,
2013-08-15 10:29:00,64.5,51.6,30.19,WSW,238,1.0,1.0,63,0.00,,,0.00,Wunderground v.1.15,2013-08-15 14:29:00,
2013-08-15 10:34:00,64.7,50.9,30.19,SW,223,0.0,3.0,61,0.00,,,0.00,Wunderground v.1.15,2013-08-15 14:34:00,
2013-08-15 10:39:00,64.4,50.7,30.19,West,271,0.0,1.0,61,0.00,,,0.00,Wunderground v.1.15,2013-08-15 14:39:00,
2013-08-15 10:44:00,64.7,52.2,30.19,WNW,282,0.0,4.0,64,0.00,,,0.00,Wunderground v.1.15,2013-08-15 14:44:00,
2013-08-15 10:49:00,65.0,51.2,30.20,SW,217,0.0,3.0,61,0.00,,,0.00,Wunderground v.1.15,2013-08-15 14:49:00,
2013-08-15 10:54:00,65.0,52.1,30.20,WSW,254,1.0,3.0,63,0.00,,,0.00,Wunderground v.1.15,2013-08-15 14:54:00,
2013-08-15 10:59:00,64.9,53.3,30.20,West,281,1.0,5.0,66,0.00,,,0.00,Wunderground v.1.15,2013-08-15 14:59:00,
2013-08-15 11:04:00,64.7,53.5,30.19,WSW,258,0.0,5.0,67,0.00,,,0.00,Wunderground v.1.15,2013-08-15 15:04:00,
2013-08-15 11:09:00,64.8,54.0,30.19,SE,138,1.0,3.0,68,0.00,,,0.00,Wunderground v.1.15,2013-08-15 15:09:00,
2013-08-15 11:15:00,65.4,55.0,30.19,SW,228,0.0,3.0,69,0.00,,,0.00,Wunderground v.1.15,2013-08-15 15:15:00,
2013-08-15 11:20:00,65.4,54.6,30.19,WSW,240,1.0,5.0,68,0.00,,,0.00,Wunderground v.1.15,2013-08-15 15:20:00,
2013-08-15 11:25:00,65.1,54.3,30.19,SW,215,1.0,5.0,68,0.00,,,0.00,Wunderground v.1.15,2013-08-15 15:25:00,
2013-08-15 11:30:00,65.2,55.2,30.19,WNW,284,2.0,4.0,70,0.00,,,0.00,Wunderground v.1.15,2013-08-15 15:30:00,
2013-08-15 11:35:00,65.8,56.1,30.19,WSW,248,2.0,4.0,71,0.00,,,0.00,Wunderground v.1.15,2013-08-15 15:35:00,
2013-08-15 11:40:00,65.9,55.4,30.19,WSW,237,1.0,4.0,69,0.00,,,0.00,Wunderground v.1.15,2013-08-15 15:40:00,
2013-08-15 11:45:00,66.0,55.5,30.19,WSW,239,1.0,4.0,69,0.00,,,0.00,Wunderground v.1.15,2013-08-15 15:45:00,
2013-08-15 11:50:00,65.8,56.1,30.19,SW,223,0.0,3.0,71,0.00,,,0.00,Wunderground v.1.15,2013-08-15 15:50:00,
2013-08-15 11:55:00,66.2,56.1,30.19,WSW,242,1.0,5.0,70,0.00,,,0.00,Wunderground v.1.15,2013-08-15 15:55:00,
2013-08-15 12:00:00,65.9,56.2,30.19,West,260,1.0,3.0,71,0.00,,,0.00,Wunderground v.1.15,2013-08-15 16:00:00,
2013-08-15 12:05:00,65.8,56.5,30.19,SW,231,1.0,4.0,72,0.00,,,0.00,Wunderground v.1.15,2013-08-15 16:05:00,
2013-08-15 12:10:00,66.1,56.4,30.19,WNW,284,2.0,3.0,71,0.00,,,0.00,Wunderground v.1.15,2013-08-15 16:10:00,
2013-08-15 12:16:00,65.6,56.3,30.19,WSW,242,1.0,4.0,72,0.00,,,0.00,Wunderground v.1.15,2013-08-15 16:16:00,
2013-08-15 12:21:00,65.9,56.6,30.19,West,264,1.0,4.0,72,0.00,,,0.00,Wunderground v.1.15,2013-08-15 16:21:00,
2013-08-15 12:26:00,66.0,56.7,30.18,SSW,213,2.0,5.0,72,0.00,,,0.00,Wunderground v.1.15,2013-08-15 16:26:00,
2013-08-15 12:31:00,65.9,57.0,30.19,SSW,201,2.0,4.0,73,0.00,,,0.00,Wunderground v.1.15,2013-08-15 16:31:00,
2013-08-15 12:36:00,66.4,57.9,30.18,WSW,257,1.0,4.0,74,0.00,,,0.00,Wunderground v.1.15,2013-08-15 16:36:00,
2013-08-15 12:41:00,66.2,57.3,30.18,SSE,165,4.0,4.0,73,0.00,,,0.00,Wunderground v.1.15,2013-08-15 16:41:00,
2013-08-15 12:46:00,66.1,57.2,30.18,SW,231,0.0,4.0,73,0.00,,,0.00,Wunderground v.1.15,2013-08-15 16:46:00,
2013-08-15 12:51:00,66.0,57.5,30.18,SSW,211,0.0,10.0,74,0.00,,,0.00,Wunderground v.1.15,2013-08-15 16:51:00,
2013-08-15 12:56:00,66.0,57.5,30.18,SW,229,3.0,10.0,74,0.00,,,0.00,Wunderground v.1.15,2013-08-15 16:56:00,
2013-08-15 13:01:00,66.3,57.8,30.18,SW,219,2.0,3.0,74,0.00,,,0.00,Wunderground v.1.15,2013-08-15 17:01:00,
2013-08-15 13:06:00,66.4,58.2,30.17,WSW,248,0.0,5.0,75,0.00,,,0.00,Wunderground v.1.15,2013-08-15 17:06:00,
2013-08-15 13:11:00,66.6,59.2,30.17,WSW,257,3.0,4.0,77,0.00,,,0.00,Wunderground v.1.15,2013-08-15 17:11:00,
2013-08-15 13:16:00,66.7,58.9,30.17,SW,227,3.0,4.0,76,0.00,,,0.00,Wunderground v.1.15,2013-08-15 17:16:00,
2013-08-15 13:21:00,66.7,58.9,30.17,West,260,2.0,3.0,76,0.00,,,0.00,Wunderground v.1.15,2013-08-15 17:21:00,
2013-08-15 13:26:00,66.9,59.1,30.17,SW,233,0.0,3.0,76,0.00,,,0.00,Wunderground v.1.15,2013-08-15 17:26:00,
2013-08-15 13:31:00,67.3,59.8,30.17,WSW,246,0.0,4.0,77,0.00,,,0.00,Wunderground v.1.15,2013-08-15 17:31:00,
2013-08-15 13:36:00,67.2,59.4,30.17,WNW,290,0.0,4.0,76,0.00,,,0.00,Wunderground v.1.15,2013-08-15 17:36:00,
2013-08-15 13:41:00,67.4,59.6,30.16,WNW,284,0.0,2.0,76,0.00,,,0.00,Wunderground v.1.15,2013-08-15 17:41:00,
2013-08-15 13:47:00,67.3,59.1,30.16,WSW,253,0.0,3.0,75,0.00,,,0.00,Wunderground v.1.15,2013-08-15 17:47:00,
2013-08-15 13:52:00,67.5,59.7,30.16,WSW,250,1.0,2.0,76,0.00,,,0.00,Wunderground v.1.15,2013-08-15 17:52:00,
2013-08-15 13:57:00,67.8,60.0,30.16,West,259,0.0,2.0,76,0.00,,,0.00,Wunderground v.1.15,2013-08-15 17:57:00,
2013-08-15 14:02:00,67.8,60.0,30.16,West,267,0.0,1.0,76,0.00,,,0.00,Wunderground v.1.15,2013-08-15 18:02:00,
2013-08-15 14:07:00,68.1,60.2,30.16,West,267,0.0,3.0,76,0.00,,,0.00,Wunderground v.1.15,2013-08-15 18:07:00,
2013-08-15 14:12:00,68.6,60.4,30.16,West,267,2.0,3.0,75,0.00,,,0.00,Wunderground v.1.15,2013-08-15 18:12:00,
2013-08-15 14:17:00,69.0,60.0,30.15,WNW,285,0.0,3.0,73,0.00,,,0.00,Wunderground v.1.15,2013-08-15 18:17:00,
2013-08-15 14:22:00,69.7,60.7,30.15,West,277,1.0,3.0,73,0.00,,,0.00,Wunderground v.1.15,2013-08-15 18:22:00,
2013-08-15 14:27:00,69.5,61.2,30.15,WSW,244,1.0,4.0,75,0.00,,,0.00,Wunderground v.1.15,2013-08-15 18:27:00,
2013-08-15 14:32:00,70.1,60.3,30.15,WSW,246,0.0,3.0,71,0.00,,,0.00,Wunderground v.1.15,2013-08-15 18:32:00,
2013-08-15 14:37:00,70.3,60.8,30.15,WSW,247,0.0,3.0,72,0.00,,,0.00,Wunderground v.1.15,2013-08-15 18:37:00,
2013-08-15 14:43:00,70.9,61.8,30.15,WSW,256,1.0,2.0,73,0.00,,,0.00,Wunderground v.1.15,2013-08-15 18:43:00,
2013-08-15 14:48:00,71.0,60.7,30.15,West,267,0.0,2.0,70,0.00,,,0.00,Wunderground v.1.15,2013-08-15 18:48:00,
2013-08-15 14:53:00,70.9,61.4,30.15,NW,313,0.0,2.0,72,0.00,,,0.00,Wunderground v.1.15,2013-08-15 18:53:00,
2013-08-15 14:58:00,71.0,62.3,30.15,NW,313,1.0,2.0,74,0.00,,,0.00,Wunderground v.1.15,2013-08-15 18:58:00,
2013-08-15 15:03:00,70.2,61.9,30.15,NW,313,0.0,2.0,75,0.00,,,0.00,Wunderground v.1.15,2013-08-15 19:03:00,
2013-08-15 15:08:00,70.4,62.5,30.15,NW,316,0.0,1.0,76,0.00,,,0.00,Wunderground v.1.15,2013-08-15 19:08:00,
2013-08-15 15:13:00,70.7,62.0,30.15,NW,311,1.0,3.0,74,0.00,,,0.00,Wunderground v.1.15,2013-08-15 19:13:00,
2013-08-15 15:18:00,70.1,61.4,30.15,NW,311,1.0,1.0,74,0.00,,,0.00,Wunderground v.1.15,2013-08-15 19:18:00,
2013-08-15 15:23:00,69.7,61.4,30.14,NW,312,2.0,4.0,75,0.00,,,0.00,Wunderground v.1.15,2013-08-15 19:23:00,
2013-08-15 15:28:00,70.8,60.9,30.14,NW,311,0.0,4.0,71,0.00,,,0.00,Wunderground v.1.15,2013-08-15 19:28:00,
2013-08-15 15:33:00,71.9,61.2,30.14,NW,312,0.0,3.0,69,0.00,,,0.00,Wunderground v.1.15,2013-08-15 19:33:00,
2013-08-15 15:38:00,73.5,62.3,30.14,WNW,300,0.0,1.0,68,0.00,,,0.00,Wunderground v.1.15,2013-08-15 19:38:00,
2013-08-15 15:44:00,73.3,61.3,30.14,WNW,300,2.0,3.0,66,0.00,,,0.00,Wunderground v.1.15,2013-08-15 19:44:00,
2013-08-15 15:49:00,72.8,62.4,30.14,WNW,302,0.0,1.0,70,0.00,,,0.00,Wunderground v.1.15,2013-08-15 19:49:00,
2013-08-15 15:54:00,71.9,60.8,30.14,WNW,302,0.0,4.0,68,0.00,,,0.00,Wunderground v.1.15,2013-08-15 19:54:00,
2013-08-15 15:59:00,71.3,61.8,30.14,WNW,302,0.0,1.0,72,0.00,,,0.00,Wunderground v.1.15,2013-08-15 19:59:00,
2013-08-15 16:04:00,70.1,61.0,30.14,WNW,302,0.0,1.0,73,0.00,,,0.00,Wunderground v.1.15,2013-08-15 20:04:00,
2013-08-15 16:09:00,70.1,62.2,30.14,WNW,302,1.0,1.0,76,0.00,,,0.00,Wunderground v.1.15,2013-08-15 20:09:00,
2013-08-15 16:14:00,70.7,60.8,30.13,WNW,302,2.0,2.0,71,0.00,,,0.00,Wunderground v.1.15,2013-08-15 20:14:00,
2013-08-15 16:19:00,70.5,61.0,30.13,WNW,302,0.0,2.0,72,0.00,,,0.00,Wunderground v.1.15,2013-08-15 20:19:00,
2013-08-15 16:24:00,71.1,61.6,30.13,WNW,302,1.0,2.0,72,0.00,,,0.00,Wunderground v.1.15,2013-08-15 20:24:00,
2013-08-15 16:29:00,71.6,61.7,30.13,WNW,302,1.0,1.0,71,0.00,,,0.00,Wunderground v.1.15,2013-08-15 20:29:00,
2013-08-15 16:34:00,71.8,61.9,30.13,WNW,302,3.0,3.0,71,0.00,,,0.00,Wunderground v.1.15,2013-08-15 20:34:00,
2013-08-15 16:39:00,71.9,60.8,30.12,WNW,302,3.0,4.0,68,0.00,,,0.00,Wunderground v.1.15,2013-08-15 20:39:00,
2013-08-15 16:44:00,72.0,61.3,30.12,WNW,303,2.0,4.0,69,0.00,,,0.00,Wunderground v.1.15,2013-08-15 20:44:00,
2013-08-15 16:49:00,73.2,62.4,30.12,WNW,303,1.0,2.0,69,0.00,,,0.00,Wunderground v.1.15,2013-08-15 20:49:00,
2013-08-15 16:54:00,73.5,61.4,30.12,NW,317,0.0,4.0,66,0.00,,,0.00,Wunderground v.1.15,2013-08-15 20:54:00,
2013-08-15 16:59:00,73.6,60.7,30.12,NW,305,0.0,2.0,64,0.00,,,0.00,Wunderground v.1.15,2013-08-15 20:59:00,
2013-08-15 17:04:00,73.6,62.4,30.12,NW,304,3.0,3.0,68,0.00,,,0.00,Wunderground v.1.15,2013-08-15 21:04:00,
2013-08-15 17:09:00,72.2,62.7,30.12,WNW,300,1.0,1.0,72,0.00,,,0.00,Wunderground v.1.15,2013-08-15 21:09:00,
2013-08-15 17:15:00,72.3,60.7,30.12,NW,316,4.0,5.0,67,0.00,,,0.00,Wunderground v.1.15,2013-08-15 21:15:00,
2013-08-15 17:20:00,68.8,62.0,30.12,NW,316,4.0,4.0,79,0.00,,,0.00,Wunderground v.1.15,2013-08-15 21:20:00,
2013-08-15 17:25:00,68.5,62.8,30.13,NW,316,2.0,4.0,82,0.00,,,0.00,Wunderground v.1.15,2013-08-15 21:25:00,
2013-08-15 17:30:00,68.5,63.1,30.13,NW,316,2.0,3.0,83,0.00,,,0.00,Wunderground v.1.15,2013-08-15 21:30:00,
2013-08-15 17:35:00,68.7,63.3,30.12,NW,316,2.0,3.0,83,0.00,,,0.00,Wunderground v.1.15,2013-08-15 21:35:00,
2013-08-15 17:40:00,69.6,62.4,30.13,NW,315,2.0,4.0,78,0.00,,,0.00,Wunderground v.1.15,2013-08-15 21:40:00,
2013-08-15 17:45:00,69.1,62.7,30.12,NW,315,0.0,4.0,80,0.00,,,0.00,Wunderground v.1.15,2013-08-15 21:45:00,
2013-08-15 17:50:00,69.4,62.2,30.13,NW,315,1.0,3.0,78,0.00,,,0.00,Wunderground v.1.15,2013-08-15 21:50:00,
2013-08-15 17:55:00,68.9,61.8,30.13,NW,315,1.0,3.0,78,0.00,,,0.00,Wunderground v.1.15,2013-08-15 21:55:00,
2013-08-15 18:00:00,69.2,61.7,30.13,NW,315,2.0,3.0,77,0.00,,,0.00,Wunderground v.1.15,2013-08-15 22:00:00,
2013-08-15 18:05:00,69.7,61.0,30.13,NW,315,0.0,3.0,74,0.00,,,0.00,Wunderground v.1.15,2013-08-15 22:05:00,
2013-08-15 18:10:00,69.8,61.9,30.13,NW,315,2.0,3.0,76,0.00,,,0.00,Wunderground v.1.15,2013-08-15 22:10:00,
2013-08-15 18:15:00,69.7,62.2,30.13,NW,311,2.0,4.0,77,0.00,,,0.00,Wunderground v.1.15,2013-08-15 22:15:00,
2013-08-15 18:20:00,69.5,61.6,30.13,NW,311,2.0,3.0,76,0.00,,,0.00,Wunderground v.1.15,2013-08-15 22:20:00,
2013-08-15 18:25:00,69.5,62.3,30.13,NW,311,2.0,4.0,78,0.00,,,0.00,Wunderground v.1.15,2013-08-15 22:25:00,
2013-08-15 18:31:00,69.6,62.1,30.13,NW,311,2.0,3.0,77,0.00,,,0.00,Wunderground v.1.15,2013-08-15 22:31:00,
2013-08-15 18:36:00,70.0,62.5,30.13,NW,311,1.0,3.0,77,0.00,,,0.00,Wunderground v.1.15,2013-08-15 22:36:00,
2013-08-15 18:41:00,69.7,61.8,30.12,NW,311,1.0,2.0,76,0.00,,,0.00,Wunderground v.1.15,2013-08-15 22:41:00,
2013-08-15 18:46:00,69.7,61.4,30.12,NW,311,0.0,2.0,75,0.00,,,0.00,Wunderground v.1.15,2013-08-15 22:46:00,
2013-08-15 18:51:00,69.4,61.1,30.12,NW,311,1.0,2.0,75,0.00,,,0.00,Wunderground v.1.15,2013-08-15 22:51:00,
2013-08-15 18:56:00,70.0,61.3,30.12,NW,311,2.0,3.0,74,0.00,,,0.00,Wunderground v.1.15,2013-08-15 22:56:00,
2013-08-15 19:01:00,70.5,60.6,30.12,NW,311,2.0,3.0,71,0.00,,,0.00,Wunderground v.1.15,2013-08-15 23:01:00,
2013-08-15 19:06:00,70.7,60.4,30.12,NW,311,2.0,3.0,70,0.00,,,0.00,Wunderground v.1.15,2013-08-15 23:06:00,
2013-08-15 19:11:00,69.8,60.4,30.12,NW,311,2.0,3.0,72,0.00,,,0.00,Wunderground v.1.15,2013-08-15 23:11:00,
2013-08-15 19:16:00,68.1,59.9,30.12,NW,311,2.0,3.0,75,0.00,,,0.00,Wunderground v.1.15,2013-08-15 23:16:00,
2013-08-15 19:21:00,67.3,60.2,30.12,NW,311,1.0,2.0,78,0.00,,,0.00,Wunderground v.1.15,2013-08-15 23:21:00,
2013-08-15 19:26:00,68.3,60.8,30.12,NW,311,2.0,2.0,77,0.00,,,0.00,Wunderground v.1.15,2013-08-15 23:26:00,
2013-08-15 19:31:00,67.9,60.4,30.12,NW,311,1.0,2.0,77,0.00,,,0.00,Wunderground v.1.15,2013-08-15 23:31:00,
2013-08-15 19:36:00,68.5,61.4,30.12,NW,311,1.0,2.0,78,0.00,,,0.00,Wunderground v.1.15,2013-08-15 23:36:00,
2013-08-15 19:41:00,69.3,61.4,30.12,NW,311,0.0,2.0,76,0.00,,,0.00,Wunderground v.1.15,2013-08-15 23:41:00,
2013-08-15 19:46:00,69.5,61.6,30.12,NW,311,0.0,3.0,76,0.00,,,0.00,Wunderground v.1.15,2013-08-15 23:46:00,
2013-08-15 19:51:00,69.0,61.5,30.12,NW,311,0.0,1.0,77,0.00,,,0.00,Wunderground v.1.15,2013-08-15 23:51:00,
2013-08-15 19:56:00,68.8,61.3,30.12,NW,311,1.0,2.0,77,0.00,,,0.00,Wunderground v.1.15,2013-08-15 23:56:00,
2013-08-15 20:02:00,69.3,61.8,30.12,NW,311,0.0,2.0,77,0.00,,,0.00,Wunderground v.1.15,2013-08-16 00:02:00,
2013-08-15 20:07:00,68.5,61.4,30.12,NW,311,0.0,2.0,78,0.00,,,0.00,Wunderground v.1.15,2013-08-16 00:07:00,
2013-08-15 20:12:00,67.5,61.1,30.12,NW,311,0.0,1.0,80,0.00,,,0.00,Wunderground v.1.15,2013-08-16 00:12:00,
2013-08-15 20:17:00,67.2,61.2,30.12,NW,311,0.0,1.0,81,0.00,,,0.00,Wunderground v.1.15,2013-08-16 00:17:00,
2013-08-15 20:22:00,67.4,61.7,30.12,NW,311,0.0,1.0,82,0.00,,,0.00,Wunderground v.1.15,2013-08-16 00:22:00,
2013-08-15 20:27:00,67.6,61.9,30.13,NW,311,0.0,1.0,82,0.00,,,0.00,Wunderground v.1.15,2013-08-16 00:27:00,
2013-08-15 20:32:00,67.0,61.7,30.13,NW,311,0.0,1.0,83,0.00,,,0.00,Wunderground v.1.15,2013-08-16 00:32:00,
2013-08-15 20:37:00,66.4,61.1,30.13,NW,311,0.0,1.0,83,0.00,,,0.00,Wunderground v.1.15,2013-08-16 00:37:00,
2013-08-15 20:42:00,65.4,60.8,30.12,NW,311,0.0,0.0,85,0.00,,,0.00,Wunderground v.1.15,2013-08-16 00:42:00,
2013-08-15 20:47:00,64.7,60.7,30.13,NW,311,0.0,0.0,87,0.00,,,0.00,Wunderground v.1.15,2013-08-16 00:47:00,
2013-08-15 20:52:00,64.2,60.6,30.13,NW,311,0.0,0.0,88,0.00,,,0.00,Wunderground v.1.15,2013-08-16 00:52:00,
2013-08-15 20:57:00,64.0,60.4,30.13,NW,311,0.0,0.0,88,0.00,,,0.00,Wunderground v.1.15,2013-08-16 00:57:00,
2013-08-15 21:02:00,63.6,60.3,30.13,NW,311,0.0,0.0,89,0.00,,,0.00,Wunderground v.1.15,2013-08-16 01:02:00,
2013-08-15 21:07:00,63.8,60.5,30.13,NW,311,0.0,0.0,89,0.00,,,0.00,Wunderground v.1.15,2013-08-16 01:07:00,
2013-08-15 21:12:00,63.2,59.9,30.13,NW,311,0.0,0.0,89,0.00,,,0.00,Wunderground v.1.15,2013-08-16 01:12:00,
2013-08-15 21:17:00,62.9,59.6,30.13,NW,311,0.0,0.0,89,0.00,,,0.00,Wunderground v.1.15,2013-08-16 01:17:00,
2013-08-15 21:22:00,62.7,59.4,30.13,NW,311,0.0,0.0,89,0.00,,,0.00,Wunderground v.1.15,2013-08-16 01:22:00,
2013-08-15 21:27:00,62.3,59.0,30.13,NW,311,0.0,0.0,89,0.00,,,0.00,Wunderground v.1.15,2013-08-16 01:27:00,
2013-08-15 21:32:00,62.1,58.5,30.13,NW,311,0.0,0.0,88,0.00,,,0.00,Wunderground v.1.15,2013-08-16 01:32:00,
2013-08-15 21:38:00,62.0,59.0,30.13,NW,311,0.0,1.0,90,0.00,,,0.00,Wunderground v.1.15,2013-08-16 01:38:00,
2013-08-15 21:43:00,61.7,58.7,30.13,NW,311,0.0,2.0,90,0.00,,,0.00,Wunderground v.1.15,2013-08-16 01:43:00,
2013-08-15 21:48:00,61.4,58.7,30.13,NW,311,0.0,2.0,91,0.00,,,0.00,Wunderground v.1.15,2013-08-16 01:48:00,
2013-08-15 21:53:00,61.2,58.6,30.13,NW,311,1.0,1.0,91,0.00,,,0.00,Wunderground v.1.15,2013-08-16 01:53:00,
2013-08-15 21:58:00,61.0,58.4,30.13,NW,311,1.0,2.0,91,0.00,,,0.00,Wunderground v.1.15,2013-08-16 01:58:00,
2013-08-15 22:03:00,60.7,58.4,30.13,NW,311,1.0,2.0,92,0.00,,,0.00,Wunderground v.1.15,2013-08-16 02:03:00,
2013-08-15 22:08:00,60.5,58.2,30.13,NW,311,2.0,2.0,92,0.00,,,0.00,Wunderground v.1.15,2013-08-16 02:08:00,
2013-08-15 22:13:00,60.3,58.3,30.14,NW,311,1.0,2.0,93,0.00,,,0.00,Wunderground v.1.15,2013-08-16 02:13:00,
2013-08-15 22:18:00,60.2,58.2,30.14,NW,311,2.0,2.0,93,0.00,,,0.00,Wunderground v.1.15,2013-08-16 02:18:00,
2013-08-15 22:23:00,60.0,58.0,30.14,NW,311,2.0,3.0,93,0.00,,,0.00,Wunderground v.1.15,2013-08-16 02:23:00,
2013-08-15 22:28:00,59.9,57.9,30.14,NW,311,2.0,3.0,93,0.00,,,0.00,Wunderground v.1.15,2013-08-16 02:28:00,
2013-08-15 22:33:00,59.8,57.8,30.14,NW,311,2.0,3.0,93,0.00,,,0.00,Wunderground v.1.15,2013-08-16 02:33:00,
2013-08-15 22:38:00,59.6,57.6,30.14,NW,311,2.0,3.0,93,0.00,,,0.00,Wunderground v.1.15,2013-08-16 02:38:00,
2013-08-15 22:43:00,59.5,57.8,30.14,NW,311,3.0,3.0,94,0.00,,,0.00,Wunderground v.1.15,2013-08-16 02:43:00,
2013-08-15 22:48:00,59.3,57.6,30.14,NW,311,2.0,3.0,94,0.00,,,0.00,Wunderground v.1.15,2013-08-16 02:48:00,
2013-08-15 22:53:00,59.1,57.4,30.14,NW,311,2.0,3.0,94,0.00,,,0.00,Wunderground v.1.15,2013-08-16 02:53:00,
2013-08-15 22:58:00,59.1,57.4,30.14,NW,311,2.0,3.0,94,0.00,,,0.00,Wunderground v.1.15,2013-08-16 02:58:00,
2013-08-15 23:03:00,59.0,57.3,30.14,NW,311,1.0,2.0,94,0.00,,,0.00,Wunderground v.1.15,2013-08-16 03:03:00,
2013-08-15 23:08:00,59.0,57.3,30.14,NW,311,1.0,2.0,94,0.00,,,0.00,Wunderground v.1.15,2013-08-16 03:08:00,
2013-08-15 23:13:00,58.9,57.2,30.13,NW,311,2.0,2.0,94,0.00,,,0.00,Wunderground v.1.15,2013-08-16 03:13:00,
2013-08-15 23:18:00,58.9,57.2,30.13,NW,311,1.0,2.0,94,0.00,,,0.00,Wunderground v.1.15,2013-08-16 03:18:00,
2013-08-15 23:23:00,58.9,57.2,30.13,NW,311,1.0,2.0,94,0.00,,,0.00,Wunderground v.1.15,2013-08-16 03:23:00,
2013-08-15 23:28:00,58.8,57.1,30.13,NW,311,1.0,2.0,94,0.00,,,0.00,Wunderground v.1.15,2013-08-16 03:28:00,
2013-08-15 23:33:00,58.7,57.0,30.13,NW,311,2.0,2.0,94,0.00,,,0.00,Wunderground v.1.15,2013-08-16 03:33:00,
2013-08-15 23:38:00,58.7,57.0,30.14,NW,311,1.0,2.0,94,0.00,,,0.00,Wunderground v.1.15,2013-08-16 03:38:00,
2013-08-15 23:43:00,58.7,57.0,30.14,NW,311,2.0,2.0,94,0.00,,,0.00,Wunderground v.1.15,2013-08-16 03:43:00,
2013-08-15 23:48:00,58.5,56.8,30.14,NW,311,2.0,2.0,94,0.00,,,0.00,Wunderground v.1.15,2013-08-16 03:48:00,
2013-08-15 23:53:00,58.4,56.7,30.14,NW,311,1.0,2.0,94,0.00,,,0.00,Wunderground v.1.15,2013-08-16 03:53:00,
2013-08-15 23:58:00,58.2,56.5,30.14,NW,311,2.0,2.0,94,0.00,,,0.00,Wunderground v.1.15,2013-08-16 03:58:00,